Regional Weather Roundup
Issued by NWS State College, PA

Home | Current Version | Previous Version | Text Only | Print | Product List | Glossary On
Versions: 1 2 3 4 5 6 7 8 9 10 11 12 13 14 15 16 17 18 19 20 21 22 23 24 25 26 27 28 29 30 31 32 33 34 35 36 37 38 39 40 41 42 43 44 45 46 47 48 49 50
000
ASUS41 KCTP 240910
RWRCTP

REGIONAL WEATHER ROUNDUP
NATIONAL WEATHER SERVICE STATE COLLEGE PA
500 AM EDT THU AUG 24 2017

Note: "fair" indicates few or no clouds below 12,000 feet with no
significant weather and/or obstructions to visibility.

* = STATION THAT DOES NOT REPORT PRECIPITATION /E.G. RAIN...SNOW...ETC/
    THUNDER OR FOG.

PAZ002>004-007>009-013>016-020>023-029>032-241000-
WESTERN PENNSYLVANIA

CITY           SKY/WX    TMP DP  RH WIND       PRES   REMARKS
ERIE           MOCLDY    57  54  89 CALM      30.00R
MEADVILLE      CLOUDY    55  54  96 CALM      30.01S
FRANKLIN*      CLOUDY    54  48  82 CALM      30.00F
NEW CASTLE     CLOUDY    55  55 100 E5        30.00S
BEAVER COUNTY  NOT AVBL
BUTLER*        PTCLDY    55  54  94 CALM      30.00S
PITTSBURGH INT MOCLDY    59  57  93 W3        29.98S
PITTSBURGH     PTCLDY    58  55  90 S3        29.98S FOG
INDIANA*       MOCLDY    57  57 100 CALM      30.02S
LATROBE        MOCLDY    55  55 100 CALM      30.00S
WASHINGTON CO* MOCLDY    54  50  87 CALM      29.99S
$$

PAZ004>006-010>012-017>019-024>028-033>037-041-042-045-046-049>053-241000-
CENTRAL PENNSYLVANIA

CITY           SKY/WX    TMP DP  RH WIND       PRES   REMARKS
BRADFORD       PTCLDY    47  47 100 CALM      30.00S FOG
DUBOIS         FOG       52  50  93 CALM      29.99F VSB 3/4
CLEARFIELD     PTCLDY    54  53  97 CALM      30.00S
JOHNSTOWN      PTCLDY    57  52  83 NW3       30.01S
ALTOONA        CLEAR     55  53  93 S3        29.99S
STATE COLLEGE  PTCLDY    54  53  97 CALM      29.98S
WILLIAMSPORT   PTCLDY    57  55  93 N3        29.96R
SELINSGROVE    CLEAR     54  54 100 CALM      29.96R
FT INDIANTOWN  CLEAR     63  54  71 CALM      29.93R
CAPITAL CITY   CLEAR     59  54  83 W3        29.94R
HARRISBURG     PTCLDY    63  59  87 CALM      29.93R
YORK           CLEAR     55  55 100 CALM      29.95R
$$

PAZ038>040-043-044-047-048-054-055-060>062-067>071-241000-
EASTERN PENNSYLVANIA

CITY           SKY/WX    TMP DP  RH WIND       PRES   REMARKS
SCRANTON       CLEAR     56  54  93 CALM      29.95R
MOUNT POCONO   CLEAR     53  52  96 N6        29.95S
ALLENTOWN      CLEAR     60  56  86 CALM      29.93R
QUAKERTOWN*    SUNNY     55  55 100 CALM      29.94R
READING        CLEAR     60  58  92 CALM      29.92R
LANCASTER      CLEAR     61  58  90 CALM      29.93R
COATESVILLE    SUNNY     61  55  82 NW5       29.94R
POTTSTOWN      CLEAR     57  56  96 CALM      29.94R
BLUE BELL      CLEAR     55  55 100 CALM      29.92S
DOYLESTOWN     CLEAR     60  56  86 NE3       29.91S
WILLOW GROVE   NOT AVBL
NORTH PHILA    CLEAR     65  56  72 N3        29.92R
PHILADELPHIA   PTCLDY    67  55  65 N7        29.91R
$$



USA.gov is the U.S. government's official web portal to all federal, state and local government web resources and services.